Location: *
(50.5492°N, 7.7469°E)
Time: 07:48:53
(UTC+00:00)

STARLINK-62 - Pass Details

Date: 21 October 2019
Orbit: 548 x 551 km, 53.0° (Epoch: 16 November)

Event Time Altitude Azimuth Distance (km) Brightness Sun altitude
Rises 17:16:08 0° 269° (W) 2,717 9.6 -8.7°
Reaches altitude 10° 17:18:24 10° 272° (W) 1,824 7.9 -9.0°
Maximum altitude 17:22:30 62° 354° (N) 621 3.9 -9.7°
Enters shadow 17:26:00 14° 74° (ENE) 1,587 5.3 -10.3°
